Вернуться в каталог

FLOCK 4G 22

АктивенНаукаSSO
NORAD 62645·PAYLOAD·🇺🇸 United States

Запущен Jan 14, 2025 с Vandenberg Space Force Base

Loading…

Ближайшие Пролёты (ближайшие 24 часа)

TLE

СвежийSource: CelesTrak SupGP

Эпоха: Sep 14, 2026, 18:45 UTC

1 62645C 25009AN  26257.78146991  .00004912  00000+0  16522-3 0  2577
2 62645  97.3954 339.4300 0001821  22.7734 184.8987 15.30855662    18

Отслеживайте FLOCK 4G 22 в реальном времени с AllMySat

Download on the App Store